Location: Rometta
(44.2000°N, 10.0500°E)
Time: 12:38:41
(UTC+00:00)

CZ-2D R/B - Pass Details

Date: 20 January 2021
Orbit: 521 x 537 km, 97.4° (Epoch: 07 March)

Event Time Altitude Azimuth Distance (km) Brightness Sun altitude
Rises 16:50:00 0° 141° (SE) 2,674 6.6 -6.8°
Reaches altitude 10° 16:52:17 10° 130° (SE) 1,786 5.6 -7.2°
Maximum altitude 16:55:38 29° 70° (ENE) 1,004 4.1 -7.7°
Drops below altitude 10° 16:58:59 10° 9° (N) 1,790 5.7 -8.3°
Sets 17:01:17 0° 359° (N) 2,683 6.6 -8.7°
